#timestamp,LO_Frequency,Hit,StdDev 
1599631215.4,286046998.9,N
1599631235.2,286046996.5,N
1599631255.1,286046997.7,N
1599631256.0,286046997.7,N
1599631275.8,286046999.2,N
1599631295.6,286046998.4,N
1599631315.5,286046996.5,N
1599631335.3,286046998.8,N
1599631355.2,286046998.5,N
1599631375.9,286047000.7,N
1599631395.7,286046998.1,N
1599631415.6,286047000.4,N
1599631435.4,286047000.8,N
1599631455.2,286046996.5,N
1599631475.1,286046997.7,N
1599631476.0,286046997.7,N
1599631495.8,286046997.2,N
1599631515.7,286046997.1,N
1599631565.5,286046999.4,E
1599631575.4,286046998.7,N
1599631595.3,286047000.4,P
1599631615.1,286046998.2,N
1599631635.9,286046998.4,N
1599631655.7,286046997.4,Y
1599631675.5,286046998.3,P
1599631695.4,286047000.7,N
1599631715.2,286047002.8,N
1599631735.0,286047001.4,N
1599631735.9,286047001.4,N
1599631755.8,286047002.3,N
1599631775.6,286047004.6,N
1599631795.5,286047005.7,N
1599631815.3,286047004.7,N
1599631835.1,286047003.1,N
1599631855.9,286047003.9,N
1599631875.7,286047002.0,N
1599631895.5,286047002.5,N
1599631915.4,286046999.8,N
1599631935.2,286047000.9,N
1599631955.1,286047000.5,N
1599631956.0,286047000.5,N
1599631975.8,286047000.5,N
1599631995.6,286046998.2,N
1599632015.5,286046996.5,N
1599632035.3,286046996.6,N
1599632055.1,286046999.4,N
1599632075.9,286046996.7,N
1599632095.7,286046999.4,N
1599632115.6,286046997.3,N
1599632135.4,286046998.4,N
1599632155.2,286046998.3,N
1599632175.1,286046999.3,N
1599632176.0,286046999.3,N
1599632195.8,286046999.4,N
1599632215.6,286046997.1,N
1599632235.5,286046997.3,N
1599632255.3,286046997.7,N
1599632275.2,286046996.6,N
1599632295.9,286046997.9,N
1599632315.7,286046995.3,N
1599632335.6,286046997.2,N
1599632355.4,286046995.1,N
1599632375.2,286046995.4,N
1599632395.1,286046997.9,N
1599632396.0,286046997.9,N
1599632415.8,286046998.5,N
1599632435.7,286046998.7,N
1599632455.5,286046999.2,N
1599632475.3,286046996.8,N
1599632495.2,286046996.7,N
1599632515.0,286046999.4,N
1599632515.9,286046999.4,N
1599632535.7,286046999.5,N
1599632555.6,286046999.1,N
1599632575.4,286046999.2,N
1599632595.3,286046996.6,N
1599632615.1,286046996.8,N
1599632635.8,286046999.1,N
1599632655.7,286046997.0,N
1599632675.5,286046999.6,N
1599632695.4,286046998.9,N
1599632715.2,286047000.6,N
1599632735.0,286046998.2,N
1599632736.0,286046998.2,N
1599632755.8,286047001.0,N
1599632775.6,286046998.3,N
1599632795.5,286046999.6,N
1599632815.3,286046996.5,N
1599632835.1,286046998.8,N
1599632855.9,286046999.5,N
1599632875.7,286046994.9,Y
1599632895.6,286046999.6,P
1599632915.4,286046999.5,N
1599632935.2,286046998.3,N
1599632955.1,286046998.4,N
1599632956.0,286046998.4,N
1599632975.8,286046998.5,N
1599632995.6,286046998.8,N
1599633015.5,286046999.4,N
1599633035.3,286046998.2,Y
1599633055.2,286046999.7,P
1599633075.9,286047002.1,P
1599633095.7,286047004.4,P
1599633115.6,286047004.4,N
1599633135.4,286047004.1,N
1599633155.2,286047003.9,N
1599633175.1,286047001.3,N
1599633176.0,286047001.3,N
1599633195.8,286047004.4,N
1599633215.7,286046999.7,N
1599633235.5,286047002.2,N
1599633255.3,286047002.1,N
1599633275.2,286047002.0,N
1599633295.9,286046999.9,N
1599633315.7,286047002.0,N
1599633335.6,286047002.4,N
1599633355.4,286046999.9,N
1599633375.2,286047002.8,N
1599633395.1,286046999.7,N
1599633396.0,286046999.7,N
1599633415.8,286047002.3,N
1599633435.7,286047000.5,N
1599633455.5,286047000.3,N
1599633475.3,286047000.3,N
1599633495.2,286047000.0,N
1599633515.0,286047001.9,N
1599633515.9,286047001.9,N
1599633535.7,286047002.8,N
1599633555.6,286047000.1,N
1599633575.4,286047000.6,N
1599633595.3,286047002.8,N
1599633615.1,286047002.6,N
1599633616.0,286047002.6,N
1599633635.8,286047002.8,N
1599633655.7,286047002.3,N
1599633675.5,286047003.7,N
1599633695.3,286047000.1,N
1599633715.2,286046999.7,N
1599633735.0,286047002.3,N
1599633735.9,286047002.3,N
1599633755.8,286047002.0,N
1599633775.6,286047001.9,N
1599633795.5,286047002.9,N
1599633815.3,286047003.0,N
1599633835.1,286047004.9,Y
1599633855.9,286047002.5,P
1599633875.7,286047000.2,N
1599633895.6,286047000.6,N
1599633915.4,286047000.6,N
1599633935.2,286047000.9,N
1599633955.1,286047000.3,N
1599633956.0,286047000.3,N
1599633975.8,286047000.6,N
1599633995.6,286047000.8,N
1599634015.5,286046998.4,N
1599634035.3,286046998.2,N
1599634055.2,286046998.4,N
1599634075.9,286047000.7,N
1599634095.7,286046998.6,N
1599634115.6,286047001.1,N
1599634135.4,286047001.6,N
1599634155.2,286047000.0,N
1599634175.1,286047002.2,N
1599634176.0,286047002.2,N
1599634195.8,286047001.3,N
1599634215.7,286047002.1,N
1599634235.5,286047001.4,N
1599634255.3,286047003.8,Y
1599634275.2,286047001.6,P
1599634295.0,286047002.4,P
1599634295.9,286047002.4,P
1599634315.8,286047002.5,Y
1599634335.6,286047000.6,P
1599634355.4,286047000.5,N
1599634375.3,286047000.9,N
1599634395.1,286047000.1,N
1599634415.9,286047000.0,N
1599634435.7,286047000.5,N
1599634455.5,286046998.6,N
1599634475.4,286046998.8,N
1599634495.2,286047000.5,N
1599634515.0,286046998.1,N
1599634515.9,286046998.1,N
1599634535.8,286046998.2,N
1599634555.6,286047000.2,N
1599634575.5,286047000.4,N
1599634595.3,286047000.5,N
1599634615.1,286047002.6,N
1599634635.9,286047002.0,N
1599634655.7,286047001.1,N
1599634675.8,286047000.8,N
1599634695.7,286046998.6,N
1599634715.5,286047000.7,N
1599634735.3,286046998.5,N
1599634755.2,286046998.6,N
1599634775.0,286047000.2,N
1599634775.9,286047000.2,N
1599634795.7,286047000.4,N
